THOR ABLESTAR DEB

Satellite information

Favourite Embed

Satellite Type and Status

DEBRISIN ORBIT

Key statistics

Satellite THOR ABLESTAR DEB at a glance.

Uptime

23544

Days in orbit

Revolutions

≈ 14.1

Per day

Orbit

LEO

Low Earth Orbit

Inclination

66.8

Latest

Satellite identification and parameters

Extended collection of information and parameters for THOR ABLESTAR DEB.

Object identification

Identified? True

Debris? True

Object name: THOR ABLESTAR DEB

International designator: 1961-015DX

Object number (NORAD): 357

Object ID (CCSDS): 357

Country: UNITED STATES OF AMERICA (US)

Current information (Y/N): Y

RCS size: SMALL

Orbital parameters

Period: 102.19 minutes

Inclination: 66.8095 deg

SMA: 7240.475 km

Apoapsis: 873.513 km

Periapsis: 851.166 km

RAAN: 356.8048 deg

Eccentricy: 0.0015432

Argument of periapsis: 306.9613 deg

Mean anomaly: 53.0061 deg

Mean motion: 14.09133721 rev/day

Mean motion (dot): 0.00001707 rev/day2

B* drag term: 0.0010271869 1/REarth

Two-line elements (TLE)

Creation date: Dec. 12, 2025, 10:14 a.m.

Reference frame: TEME

Reference center: EARTH

Epoch: Dec. 12, 2025, 5:27 a.m. UTC

TLE line 0: 0 THOR ABLESTAR DEB

TLE line 1: 1 00357U 61015DX 25346.22766683 .00001707 00000-0 10272-2 0 9997

TLE line 2: 2 00357 66.8095 356.8048 0015432 306.9613 53.0061 14.09133721269517

Live tracking on map

Real-time ground track for satellite THOR ABLESTAR DEB.

In-orbit conjunctions

A list of the most updated potential collisions computed for object THOR ABLESTAR DEB.

Target Orbit TCA Probability of collision Miss distance Type
COSMOS 1066 LEO 2025-09-04 06:10:02 0.0006108158 693.0 (m) PAYLOAD
METEOR 1-17 LEO 2024-10-12 18:23:55 0.0004906194 159.0 (m) PAYLOAD
PEGASUS DEB LEO 2024-09-26 11:17:09 0.0001568584 338.0 (m) DEBRIS

Associated space launch

THOR ABLESTAR DEB was lifted into orbit during the mission ‘Thor DM-21 Ablestar | Transit 4A & Injun-1 & Solrad 3’, on board a Thor DM-21 Ablestar space rocket.

The launch took place on June 29, 1961, 4:23 a.m. from Space Launch Complex 17B.

For more information about the launch, click the button.

Launch to space Thor DM-21 Ablestar | Transit 4A & Injun-1 & Solrad 3
Thor DM-21 Ablestar | Transit 4A & Injun-1 & Solrad 3

Agency: N/A

Status: Launch Successful

Launch date: June 29, 1961, 4:23 a.m. UTC

Rocket: Thor DM-21 Ablestar

Launch pad: Space Launch Complex 17B

Location: Cape Canaveral SFS, FL, USA

...

Latest news about this satellite

There are no fresh news available about this satellite. Check back as we update our databases every day.


Newsletter sign-up

Weekly statistics, charts and insights to help you stay on top of the space industry.